Volver al catálogo

SL-16 R/B

ActivoLEO
NORAD 25407·ROCKET BODY·🇷🇺 Russia

Lanzado Jul 28, 1998 desde Baikonur Cosmodrome

Loading…

Próximos Pases (próximas 24 horas)

TLE

ActualizadoSource: Space-Track

Época: Sep 14, 2026, 02:11 UTC

1 25407U 98045B   26257.09127635  .00000256  00000-0  15311-3 0  9996
2 25407  71.0109 145.3640 0005311 101.0600 259.1121 14.16211054453771

Sigue SL-16 R/B en tiempo real con AllMySat

Download on the App Store